Location: *
(34.6903°N, 135.5184°E)
Time: 04:34:37
(UTC+00:00)

Cosmos 1674 Rocket - Pass Details

Date: 22 September 2019
Orbit: 603 x 630 km, 82.5° (Epoch: 20 October)

Event Time Altitude Azimuth Distance (km) Brightness Sun altitude
Rises 20:03:32 0° 177° (S) 2,857 6.9 -9.6°
Reaches altitude 10° 20:05:46 10° 173° (S) 1,953 6.1 -9.1°
Maximum altitude 20:10:00 59° 94° (E) 701 4.2 -8.2°
Drops below altitude 10° 20:14:15 10° 15° (NNE) 1,956 6.4 -7.4°
Sets 20:16:29 0° 12° (NNE) 2,862 7.2 -6.9°
